GW4275 Weather Reports


time (UTC)temp
F
wind
direction
speed
knots
gust
knots
rain 1hr
in
rain 24hr
in
rain mn
in
humidity
%
barometer
mb
20260504215008 74 157 0.0 2.6 0.00 0.00 0.00 27 1005.2
20260504214509 74 170 0.0 2.6 0.00 0.00 0.00 27 1005.2
20260504214003 75 147 0.0 4.3 0.00 0.00 0.00 29 1005.3
20260504213503 75 169 0.9 4.3 0.00 0.00 0.00 28 1005.3
20260504212503 75 136 0.0 3.5 0.00 0.00 0.00 28 1005.3
20260504212007 75 132 0.9 2.6 0.00 0.00 0.00 29 1005.4
20260504211518 75 290 0.0 2.6 0.00 0.00 0.00 27 1005.5
20260504211007 75 159 0.9 1.7 0.00 0.00 0.00 27 1005.5
20260504210512 75 131 0.9 1.7 0.00 0.00 0.00 27 1005.6
20260504205507 75 151 0.0 1.7 0.00 0.00 0.00 27 1005.6
20260504205014 76 98 0.9 1.7 0.00 0.00 0.00 28 1005.5
20260504204523 76 101 0.0 2.6 0.00 0.00 0.00 28 1005.6
20260504204009 76 352 0.9 2.6 0.00 0.00 0.00 27 1005.7
20260504203512 76 109 0.0 1.7 0.00 0.00 0.00 27 1005.7
20260504203010 76 288 0.0 2.6 0.00 0.00 0.00 29 1005.6
20260504202506 76 284 0.9 2.6 0.00 0.00 0.00 27 1005.7
20260504202006 77 300 0.9 2.6 0.00 0.00 0.00 27 1005.6
20260504201008 76 288 0.9 3.5 0.00 0.00 0.00 28 1005.8
20260504200506 76 136 0.9 2.6 0.00 0.00 0.00 30 1005.9
20260504195507 76 126 0.9 3.5 0.00 0.00 0.00 27 1006.2
20260504195008 76 31 0.9 4.3 0.00 0.00 0.00 29 1006.1
20260504194010 75 279 0.9 7.0 0.00 0.00 0.00 32 1006.5
20260504193511 75 143 0.9 1.7 0.00 0.00 0.00 31 1006.6
20260504193024 74 83 0.0 2.6 0.00 0.00 0.00 30 1006.7
20260504192512 76 311 0.9 2.6 0.00 0.00 0.00 28 1006.7
20260504192012 76 352 0.0 2.6 0.00 0.00 0.00 31 1006.9
20260504191003 75 336 0.9 3.5 0.00 0.00 0.00 31 1006.9
20260504190510 74 59 0.9 1.7 0.00 0.00 0.00 31 1007.0
20260504190021 75 71 0.0 1.7 0.00 0.00 0.00 32 1007.1
20260504185506 74 26 0.0 1.7 0.00 0.00 0.00 32 1007.0
20260504185006 76 153 0.9 1.7 0.00 0.00 0.00 29 1007.1
20260504184012 75 113 0.9 5.2 0.00 0.00 0.00 31 1007.2
20260504183503 73 16 0.9 5.2 0.00 0.00 0.00 32 1007.2
20260504183003 75 146 1.7 4.3 0.00 0.00 0.00 31 1007.3
20260504182504 75 51 0.9 3.5 0.00 0.00 0.00 31 1007.3
20260504182003 75 26 0.9 3.5 0.00 0.00 0.00 31 1007.4
20260504181504 75 38 0.9 2.6 0.00 0.00 0.00 34 1007.4
20260504181003 75 132 0.9 2.6 0.00 0.00 0.00 32 1007.5
20260504180503 74 44 0.0 1.7 0.00 0.00 0.00 34 1007.6
20260504180004 74 22 0.0 2.6 0.00 0.00 0.00 36 1007.7
20260504175502 73 126 0.9 2.6 0.00 0.00 0.00 35 1007.6
20260504175002 74 163 0.0 1.7 0.00 0.00 0.00 34 1007.6
20260504174503 73 313 0.9 2.6 0.00 0.00 0.00 34 1007.8
20260504174002 73 138 0.9 2.6 0.00 0.00 0.00 34 1007.8
20260504173505 74 15 0.9 2.6 0.00 0.00 0.00 33 1007.8
20260504173004 73 129 0.9 3.5 0.00 0.00 0.00 36 1007.8
20260504172507 73 23 0.9 3.5 0.00 0.00 0.00 36 1007.9
20260504172003 72 153 0.9 3.5 0.00 0.00 0.00 36 1007.9
20260504171504 72 267 0.9 3.5 0.00 0.00 0.00 35 1007.8
20260504171003 72 148 0.9 7.0 0.00 0.00 0.00 37 1007.9
20260504170503 72 9 1.7 7.0 0.00 0.00 0.00 35 1008.0
20260504151002 65 164 0.9 7.0 0.00 0.00 0.00 40 1009.0
20260504150504 66 152 0.9 3.5 0.00 0.00 0.00 39 1009.0
20260504140502 59 161 0.0 4.3 0.00 0.00 0.00 45 1009.8
20260504110506 50 84 0.0 1.7 0.00 0.00 0.00 55 1010.6
20260504100506 0 0.0 0.0 0.00 0.00 0.00 1010.4
20260504082007 0 0.0 0.0 0.00 0.00 0.00 1010.7
20260504081528 0 0.0 0.0 0.00 0.00 0.00 1010.8
20260504081007 0 0.0 0.0 0.00 0.00 0.00 1010.7
20260504080512 0 0.0 0.0 0.00 0.00 0.00 1010.8
20260504050507 49 331 0.0 1.7 0.00 0.00 0.00 56 1011.1
20260504050024 50 330 0.0 1.7 0.00 0.00 0.00 55 1011.2
20260504045506 50 331 0.0 1.7 0.00 0.00 0.00 54 1011.3
20260504045005 50 333 0.0 1.7 0.00 0.00 0.00 54 1011.2
20260504044512 50 333 0.0 1.7 0.00 0.00 0.00 53 1011.2
20260504044003 50 333 0.0 1.7 0.00 0.00 0.00 54 1011.2
20260504043504 50 333 0.0 1.7 0.00 0.00 0.00 53 1011.2
20260504043012 49 333 0.0 1.7 0.00 0.00 0.00 58 1011.2
20260504042506 50 333 0.0 1.7 0.00 0.00 0.00 57 1011.2
20260504042004 50 333 0.0 1.7 0.00 0.00 0.00 55 1011.1
20260504041515 50 333 0.0 1.7 0.00 0.00 0.00 57 1011.1
20260504041006 51 333 0.0 1.7 0.00 0.00 0.00 56 1011.2
20260504040507 51 333 0.0 1.7 0.00 0.00 0.00 55 1011.2
20260504040022 51 333 0.0 1.7 0.00 0.00 0.00 54 1011.2
20260504035507 51 333 0.0 1.7 0.00 0.00 0.00 55 1011.2
20260504035007 51 331 0.0 1.7 0.00 0.00 0.00 56 1011.2
20260504034526 51 331 0.0 1.7 0.00 0.00 0.00 53 1011.2
20260504034010 51 313 0.0 1.7 0.00 0.00 0.00 55 1011.3
20260504033504 51 312 0.0 1.7 0.00 0.00 0.00 57 1011.4
20260504033007 51 312 0.0 1.7 0.00 0.00 0.00 55 1011.5
20260504032503 51 312 0.0 1.7 0.00 0.00 0.00 55 1011.5
20260504032003 51 312 0.0 1.7 0.00 0.00 0.00 56 1011.6
20260504031513 52 306 0.0 1.7 0.00 0.00 0.00 55 1011.6
20260504031002 52 306 0.0 1.7 0.00 0.00 0.00 55 1011.6
20260504030506 52 307 0.0 1.7 0.00 0.00 0.00 56 1011.5
20260504030022 52 306 0.0 1.7 0.00 0.00 0.00 58 1011.5
20260504025507 52 306 0.0 1.7 0.00 0.00 0.00 52 1011.5
20260504025009 52 306 0.0 1.7 0.00 0.00 0.00 54 1011.6
20260504024525 53 306 0.0 1.7 0.00 0.00 0.00 53 1011.6
20260504024008 53 306 0.0 1.7 0.00 0.00 0.00 49 1011.6
20260504023509 53 306 0.0 0.0 0.00 0.00 0.00 47 1011.7
20260504023025 53 306 0.0 1.7 0.00 0.00 0.00 47 1011.7
20260504022510 53 306 0.0 1.7 0.00 0.00 0.00 47 1011.8
20260504022004 53 306 0.0 1.7 0.00 0.00 0.00 47 1011.8
20260504021513 53 323 0.0 1.7 0.00 0.00 0.00 47 1011.8
20260504021003 53 323 0.0 1.7 0.00 0.00 0.00 51 1011.9
20260504020504 53 322 0.0 0.9 0.00 0.00 0.00 48 1011.9
20260504020020 53 322 0.0 0.9 0.00 0.00 0.00 48 1011.9
20260504015504 53 322 0.0 0.9 0.00 0.00 0.00 49 1011.8
20260504015005 53 322 0.0 0.0 0.00 0.00 0.00 48 1011.8
20260504014522 53 322 0.0 1.7 0.00 0.00 0.00 49 1011.8
20260504014009 54 322 0.0 1.7 0.00 0.00 0.00 48 1011.7
20260504013513 54 323 0.0 2.6 0.00 0.00 0.00 48 1011.6
20260504013030 54 271 0.0 2.6 0.00 0.00 0.00 46 1011.7
20260504012509 54 306 0.0 3.5 0.00 0.00 0.00 45 1011.8
20260504012006 54 265 0.0 4.3 0.00 0.00 0.00 45 1011.8
20260504011527 55 57 0.9 4.3 0.00 0.00 0.00 45 1012.0
20260504011009 55 280 0.9 7.0 0.00 0.00 0.00 44 1012.0
20260504010503 54 275 0.9 7.0 0.00 0.00 0.00 45 1012.0
20260504010012 54 17 0.0 1.7 0.00 0.00 0.00 46 1011.9
20260504005503 54 105 0.9 1.7 0.00 0.00 0.00 45 1011.7
20260504005006 55 314 0.0 1.7 0.00 0.00 0.00 45 1011.6
20260504004533 55 65 0.0 1.7 0.00 0.00 0.00 44 1011.4
20260504004005 55 128 0.0 4.3 0.00 0.00 0.00 43 1011.4
20260504003502 55 146 0.0 4.3 0.00 0.00 0.00 43 1011.4
20260504003004 55 225 0.9 2.6 0.00 0.00 0.00 41 1011.2
20260504002502 55 51 0.0 6.1 0.00 0.00 0.00 43 1011.1
20260504002003 55 55 0.0 6.1 0.00 0.00 0.00 44 1011.0
20260504001512 55 133 1.7 5.2 0.00 0.00 0.00 42 1010.7
20260504001002 55 57 0.0 3.5 0.00 0.00 0.00 44 1011.0
20260504000504 55 144 0.9 3.5 0.00 0.00 0.00 44 1011.0
20260504000011 55 123 0.9 3.5 0.00 0.00 0.00 45 1011.2
20260503235502 55 152 0.9 1.7 0.00 0.00 0.00 46 1011.3
20260503235005 55 317 0.0 2.6 0.00 0.00 0.00 44 1011.2
20260503234518 55 289 0.0 5.2 0.00 0.00 0.00 44 1011.3
20260503234006 55 227 0.9 5.2 0.00 0.00 0.00 42 1011.5
20260503233509 55 173 0.9 4.3 0.00 0.00 0.00 43 1011.3
20260503233004 55 302 0.0 1.7 0.00 0.00 0.00 44 1011.3
20260503232502 55 279 0.0 1.7 0.00 0.00 0.00 46 1011.0
20260503232002 55 270 0.0 2.6 0.00 0.00 0.00 43 1011.0
20260503231506 55 106 0.0 2.6 0.00 0.00 0.00 43 1010.8
20260503231004 55 201 0.9 1.7 0.00 0.00 0.00 44 1010.8
20260503230503 55 122 0.0 1.7 0.00 0.00 0.00 45 1010.8
20260503230010 56 122 0.0 1.7 0.00 0.00 0.00 44 1010.6
20260503225503 56 126 0.0 1.7 0.00 0.00 0.00 43 1010.6
20260503225003 56 126 0.0 1.7 0.00 0.00 0.00 43 1010.5
20260503224511 56 126 0.0 1.7 0.00 0.00 0.00 48 1010.6
20260503224005 56 126 0.0 1.7 0.00 0.00 0.00 41 1010.6
20260503223508 56 126 0.0 1.7 0.00 0.00 0.00 42 1010.5
20260503223016 55 126 0.0 1.7 0.00 0.00 0.00 42 1010.6
20260503222507 55 126 0.0 1.7 0.00 0.00 0.00 40 1010.6
20260503222007 55 107 0.0 1.7 0.00 0.00 0.00 43 1010.7
20260503221503 55 117 0.0 1.7 0.00 0.00 0.00 42 1010.7
20260503221002 56 121 0.0 1.7 0.00 0.00 0.00 43 1010.7
20260503220502 56 122 0.0 1.7 0.00 0.00 0.00 40 1010.7
20260503220019 56 122 0.0 1.7 0.00 0.00 0.00 39 1010.8
20260503215502 56 26 0.0 1.7 0.00 0.00 0.00 38 1010.9